contact:dominique.lefevre@mio.osupytheas.fr, maurice.libes@osupytheas.fr, didier.mallarino@osupytheas.fr
Project:EMSO http://www.emso-fr.org/EMSO-France
Depth: 2436.0 m
Title:EMSO Ligure Ouest : Data MII capteur AQUADOPP
Date,Latitude,Longitude,X_East,Y_North,Z_Up,Amplitude_X,Amplitude_Y,Amplitude_Z,Batterie,SoundSpeed,Heading,Pitch,Roll,Pressure,TIS,Speed,Direction
, degrees North, degrees East, m.s-1, m.s-1,m.s-1, 1, 1, 1, Volt, m.s-1, degree, degree, degree, dbar, degree_C, m.s-1, degree
2019-07-16T00:01:43,42.805,6.029,-0.017,0.021,-0.019,101.0,104.0,97.0,13.4,1505.4,327.2,-0.7,1.8,2470.076,13.35,0.027,321.0
2019-07-16T00:04:44,42.805,6.029,0.029,0.016,-0.011,101.0,106.0,98.0,13.3,1505.4,325.2,-0.7,1.9,2470.046,13.35,0.033,61.1
2019-07-16T00:07:45,42.805,6.029,-0.008,0.036,-0.003,104.0,103.0,99.0,13.4,1505.4,327.4,-0.7,1.8,2470.001,13.35,0.036,347.5
2019-07-16T00:10:46,42.805,6.029,-0.009,0.022,-0.027,102.0,104.0,99.0,13.3,1505.4,323.9,-0.7,1.8,2470.045,13.35,0.023,337.8
2019-07-16T00:13:47,42.805,6.029,-0.046,0.026,-0.031,102.0,104.0,99.0,13.4,1505.4,324.7,-0.7,1.9,2470.03,13.35,0.052,299.5
2019-07-16T00:16:48,42.805,6.029,-0.047,0.016,-0.033,101.0,104.0,97.0,13.4,1505.4,324.9,-0.7,1.9,2470.033,13.35,0.049,288.8
2019-07-16T00:19:49,42.805,6.029,-0.028,0.014,-0.054,101.0,104.0,96.0,13.4,1505.4,325.4,-0.7,1.8,2470.058,13.35,0.031,296.6
2019-07-16T00:22:50,42.805,6.029,-0.04,0.004,-0.087,103.0,103.0,100.0,13.4,1505.4,322.8,-0.7,1.8,2470.028,13.35,0.04,275.7
2019-07-16T00:25:51,42.805,6.029,-0.009,-0.001,-0.025,102.0,106.0,99.0,13.4,1505.4,326.5,-0.7,1.8,2470.06,13.35,0.009,263.7
2019-07-16T00:28:52,42.805,6.029,0.001,0.011,-0.034,102.0,105.0,99.0,13.4,1505.4,325.2,-0.7,1.8,2470.01,13.35,0.011,5.2
2019-07-16T00:31:53,42.805,6.029,-0.034,-0.002,-0.035,101.0,105.0,99.0,13.4,1505.4,326.2,-0.7,1.9,2470.027,13.35,0.034,266.6
2019-07-16T00:34:54,42.805,6.029,-0.042,0.0,-0.046,102.0,105.0,99.0,13.4,1505.4,326.8,-0.7,1.8,2470.054,13.35,0.042,270.0
2019-07-16T00:37:55,42.805,6.029,-0.02,0.017,-0.014,103.0,105.0,104.0,13.4,1505.4,328.3,-0.7,1.8,2470.066,13.35,0.026,310.4
2019-07-16T00:40:56,42.805,6.029,0.0,0.006,-0.005,102.0,106.0,97.0,13.4,1505.4,323.9,-0.7,1.8,2470.031,13.35,0.006,0.0
2019-07-16T00:43:57,42.805,6.029,-0.055,0.024,-0.046,104.0,105.0,100.0,13.4,1505.4,326.7,-0.7,1.8,2470.004,13.35,0.06,293.6
2019-07-16T00:46:58,42.805,6.029,-0.028,0.015,-0.061,104.0,105.0,99.0,13.4,1505.4,325.4,-0.7,1.8,2470.06,13.35,0.031,298.2
2019-07-16T00:49:59,42.805,6.029,0.013,0.031,0.0,104.0,105.0,99.0,13.4,1505.4,323.7,-0.7,1.8,2470.016,13.35,0.033,22.7
2019-07-16T00:53:00,42.805,6.029,0.017,0.011,-0.003,104.0,104.0,98.0,13.4,1505.4,324.3,-0.7,1.8,2470.005,13.35,0.02,57.1
2019-07-16T00:56:01,42.805,6.029,0.033,0.022,0.011,101.0,104.0,100.0,13.3,1505.4,328.1,-0.7,1.8,2470.014,13.35,0.039,56.3
2019-07-16T00:59:02,42.805,6.029,-0.017,0.008,-0.048,102.0,105.0,97.0,13.3,1505.4,323.6,-0.7,1.8,2470.04,13.35,0.018,295.2
2019-07-16T01:02:03,42.805,6.029,0.01,0.017,-0.017,102.0,105.0,98.0,13.4,1505.4,324.9,-0.7,1.8,2470.037,13.35,0.019,30.5
2019-07-16T01:05:04,42.805,6.029,-0.016,0.009,-0.011,101.0,104.0,98.0,13.3,1505.4,327.4,-0.7,1.8,2470.017,13.35,0.018,299.4
2019-07-16T01:08:05,42.805,6.029,0.024,0.035,-0.018,103.0,104.0,97.0,13.4,1505.4,324.6,-0.7,1.8,2470.026,13.35,0.042,34.4
2019-07-16T01:11:06,42.805,6.029,-0.021,0.019,-0.01,102.0,104.0,98.0,13.4,1505.4,326.0,-0.7,1.8,2469.982,13.35,0.028,312.1
2019-07-16T01:14:07,42.805,6.029,-0.01,0.0,-0.014,100.0,104.0,99.0,13.4,1505.4,324.5,-0.7,1.8,2470.001,13.35,0.01,270.0
2019-07-16T01:17:08,42.805,6.029,-0.043,0.026,-0.055,102.0,103.0,98.0,13.4,1505.4,328.3,-0.7,1.8,2469.983,13.35,0.05,301.2
2019-07-16T01:20:09,42.805,6.029,-0.015,0.036,-0.078,104.0,105.0,97.0,13.4,1505.4,327.2,-0.7,1.8,2470.002,13.35,0.039,337.4
2019-07-16T01:23:10,42.805,6.029,-0.008,0.012,-0.037,102.0,105.0,97.0,13.3,1505.4,327.7,-0.7,1.8,2469.979,13.35,0.014,326.3
2019-07-16T01:26:11,42.805,6.029,0.008,0.014,0.018,103.0,105.0,97.0,13.4,1505.4,325.1,-0.7,1.8,2470.021,13.35,0.016,29.7
2019-07-16T01:29:12,42.805,6.029,0.013,0.025,-0.005,103.0,105.0,98.0,13.4,1505.4,325.1,-0.7,1.8,2470.003,13.35,0.028,27.5
2019-07-16T01:32:13,42.805,6.029,-0.002,-0.001,0.0,100.0,105.0,99.0,13.4,1505.4,324.0,-0.7,1.8,2470.029,13.35,0.002,243.4
2019-07-16T01:35:14,42.805,6.029,0.039,0.014,0.027,108.0,106.0,100.0,13.3,1505.4,326.6,-0.7,1.9,2470.016,13.35,0.041,70.3
2019-07-16T01:38:15,42.805,6.029,0.02,0.0,-0.013,103.0,105.0,99.0,13.4,1505.4,327.8,-0.7,1.8,2470.015,13.35,0.02,90.0
2019-07-16T01:41:16,42.805,6.029,0.001,0.001,0.007,103.0,106.0,98.0,13.4,1505.4,326.6,-0.7,1.8,2470.045,13.35,0.001,45.0
2019-07-16T01:44:17,42.805,6.029,0.005,0.008,-0.015,103.0,106.0,98.0,13.4,1505.4,324.6,-0.7,1.8,2470.011,13.35,0.009,32.0
2019-07-16T01:47:18,42.805,6.029,0.039,-0.014,0.028,102.0,105.0,99.0,13.4,1505.4,327.7,-0.7,1.8,2470.014,13.35,0.041,109.7
2019-07-16T01:50:19,42.805,6.029,0.036,0.019,-0.018,101.0,105.0,100.0,13.3,1505.4,325.8,-0.7,1.8,2469.995,13.35,0.04,62.2
2019-07-16T01:53:20,42.805,6.029,0.013,0.008,0.031,101.0,106.0,99.0,13.3,1505.4,324.6,-0.7,1.8,2469.984,13.35,0.015,58.4
2019-07-16T01:56:21,42.805,6.029,0.013,0.015,-0.006,102.0,106.0,98.0,13.4,1505.4,327.8,-0.7,1.9,2469.992,13.35,0.019,40.9
2019-07-16T01:59:22,42.805,6.029,0.011,0.021,0.0,106.0,105.0,101.0,13.4,1505.4,323.2,-0.7,1.9,2470.021,13.35,0.023,27.6
2019-07-16T02:02:23,42.805,6.029,0.02,0.001,0.026,106.0,106.0,100.0,13.3,1505.4,327.1,-0.7,1.8,2470.011,13.35,0.02,87.1
2019-07-16T02:05:24,42.805,6.029,0.032,0.022,-0.01,103.0,106.0,98.0,13.4,1505.4,324.8,-0.7,1.8,2470.039,13.35,0.038,55.5
2019-07-16T02:08:25,42.805,6.029,0.016,0.013,-0.007,103.0,107.0,99.0,13.4,1505.4,325.8,-0.7,1.8,2470.034,13.35,0.02,50.9
2019-07-16T02:11:26,42.805,6.029,0.005,0.014,-0.013,102.0,106.0,98.0,13.4,1505.4,326.1,-0.7,1.8,2470.006,13.35,0.014,19.6
2019-07-16T02:14:27,42.805,6.029,0.004,0.014,-0.008,102.0,105.0,99.0,13.4,1505.4,323.6,-0.7,1.9,2470.013,13.35,0.014,15.9
2019-07-16T02:17:28,42.805,6.029,0.006,0.001,-0.013,101.0,105.0,100.0,13.3,1505.4,327.0,-0.7,1.8,2469.999,13.35,0.006,80.5
2019-07-16T02:20:29,42.805,6.029,0.008,0.02,-0.011,101.0,106.0,100.0,13.3,1505.4,322.9,-0.7,1.8,2469.995,13.34,0.021,21.8
2019-07-16T02:23:30,42.805,6.029,0.021,0.017,0.023,103.0,109.0,99.0,13.4,1505.4,324.9,-0.7,1.8,2470.023,13.34,0.027,51.0
2019-07-16T02:26:31,42.805,6.029,0.028,0.031,0.005,102.0,105.0,98.0,13.4,1505.4,322.9,-0.8,1.8,2469.992,13.35,0.041,42.1
2019-07-16T02:29:32,42.805,6.029,0.019,0.016,-0.001,103.0,105.0,99.0,13.3,1505.4,324.9,-0.7,1.8,2470.018,13.35,0.024,49.9
2019-07-16T02:32:33,42.805,6.029,0.0,0.023,0.008,102.0,106.0,98.0,13.4,1505.4,328.3,-0.7,1.8,2470.006,13.35,0.023,0.0
2019-07-16T02:35:34,42.805,6.029,0.007,0.01,-0.019,102.0,105.0,98.0,13.3,1505.4,326.0,-0.7,1.8,2470.054,13.35,0.012,35.0
2019-07-16T02:38:35,42.805,6.029,0.032,0.025,-0.019,102.0,106.0,98.0,13.4,1505.4,326.4,-0.7,1.8,2470.013,13.35,0.04,52.0
2019-07-16T02:41:36,42.805,6.029,0.008,0.005,0.002,99.0,107.0,101.0,13.3,1505.4,326.4,-0.7,1.8,2470.033,13.35,0.009,58.0
2019-07-16T02:44:37,42.805,6.029,0.005,0.031,0.013,104.0,106.0,98.0,13.3,1505.4,324.7,-0.7,1.8,2470.015,13.35,0.031,9.2
2019-07-16T02:47:38,42.805,6.029,0.01,0.036,-0.007,102.0,105.0,98.0,13.4,1505.4,327.8,-0.7,1.9,2470.025,13.35,0.037,15.5
2019-07-16T02:50:39,42.805,6.029,-0.001,0.001,0.034,103.0,107.0,99.0,13.3,1505.4,324.1,-0.7,1.8,2470.043,13.35,0.001,315.0
2019-07-16T02:53:40,42.805,6.029,-0.003,0.012,-0.022,102.0,105.0,99.0,13.4,1505.4,324.7,-0.7,1.8,2470.004,13.34,0.012,346.0
2019-07-16T02:56:41,42.805,6.029,0.003,0.015,0.003,103.0,107.0,99.0,13.4,1505.4,328.2,-0.7,1.9,2470.021,13.34,0.015,11.3
2019-07-16T02:59:42,42.805,6.029,0.02,0.014,0.006,106.0,106.0,99.0,13.3,1505.4,325.2,-0.7,1.8,2470.036,13.34,0.024,55.0
2019-07-16T03:02:43,42.805,6.029,0.016,0.025,-0.009,102.0,106.0,100.0,13.4,1505.4,323.9,-0.7,1.8,2470.0,13.35,0.029,32.6
2019-07-16T03:05:44,42.805,6.029,-0.004,0.01,-0.011,104.0,105.0,99.0,13.4,1505.4,325.1,-0.7,1.8,2470.007,13.35,0.01,338.2
2019-07-16T03:08:45,42.805,6.029,0.013,0.036,0.01,104.0,105.0,99.0,13.4,1505.4,323.5,-0.7,1.9,2469.988,13.34,0.038,19.9
2019-07-16T03:11:46,42.805,6.029,-0.005,0.014,-0.006,102.0,106.0,98.0,13.3,1505.4,328.0,-0.7,1.8,2470.042,13.35,0.014,340.4
2019-07-16T03:14:47,42.805,6.029,0.001,0.005,-0.019,103.0,105.0,101.0,13.4,1505.4,324.3,-0.7,1.8,2470.003,13.35,0.005,11.3
2019-07-16T03:17:48,42.805,6.029,-0.005,0.02,-0.024,104.0,105.0,100.0,13.4,1505.4,323.2,-0.7,1.8,2470.002,13.34,0.02,346.0
2019-07-16T03:20:49,42.805,6.029,-0.01,0.004,-0.007,101.0,106.0,98.0,13.4,1505.4,327.6,-0.7,1.8,2470.066,13.34,0.01,291.8
2019-07-16T03:23:50,42.805,6.029,-0.005,0.01,-0.033,103.0,107.0,98.0,13.4,1505.4,325.5,-0.7,1.8,2470.011,13.34,0.011,333.4
2019-07-16T03:26:51,42.805,6.029,-0.012,0.027,-0.012,101.0,107.0,99.0,13.4,1505.4,323.2,-0.7,1.8,2470.059,13.34,0.029,336.0
2019-07-16T03:29:52,42.805,6.029,0.005,0.006,-0.012,103.0,105.0,98.0,13.4,1505.4,327.5,-0.7,1.8,2470.037,13.34,0.007,39.8
2019-07-16T03:32:53,42.805,6.029,-0.01,0.033,0.008,105.0,105.0,98.0,13.4,1505.4,326.3,-0.7,1.8,2470.013,13.34,0.034,343.1
2019-07-16T03:35:54,42.805,6.029,0.015,0.015,0.007,103.0,107.0,100.0,13.3,1505.4,327.3,-0.7,1.8,2470.053,13.34,0.021,45.0
2019-07-16T03:38:55,42.805,6.029,0.03,0.032,-0.015,104.0,108.0,98.0,13.3,1505.4,324.0,-0.7,1.8,2470.038,13.35,0.043,43.1
2019-07-16T03:41:56,42.805,6.029,0.001,0.008,-0.006,102.0,108.0,98.0,13.4,1505.4,327.8,-0.7,1.8,2470.063,13.35,0.008,7.1
2019-07-16T03:44:57,42.805,6.029,-0.009,0.034,-0.012,103.0,106.0,99.0,13.4,1505.4,325.7,-0.8,1.8,2470.061,13.35,0.035,345.2
2019-07-16T03:47:58,42.805,6.029,-0.01,0.005,-0.029,103.0,106.0,98.0,13.4,1505.4,325.6,-0.7,1.8,2470.026,13.35,0.011,296.6
2019-07-16T03:50:59,42.805,6.029,-0.017,0.023,-0.04,104.0,107.0,98.0,13.3,1505.4,326.2,-0.7,1.9,2470.045,13.35,0.028,323.5
2019-07-16T03:54:00,42.805,6.029,0.0,-0.009,-0.026,103.0,108.0,99.0,13.4,1505.4,325.0,-0.7,1.8,2470.038,13.35,0.009,180.0
2019-07-16T03:57:01,42.805,6.029,0.0,0.01,-0.008,104.0,108.0,99.0,13.4,1505.4,328.1,-0.7,1.8,2470.092,13.35,0.01,0.0
2019-07-16T04:00:02,42.805,6.029,-0.036,0.016,-0.01,103.0,108.0,101.0,13.3,1505.4,324.8,-0.7,1.8,2470.046,13.35,0.039,294.0
2019-07-16T04:03:03,42.805,6.029,-0.017,0.02,-0.011,104.0,108.0,98.0,13.4,1505.4,323.3,-0.7,1.8,2470.06,13.35,0.026,319.6
2019-07-16T04:06:04,42.805,6.029,-0.02,0.008,-0.049,101.0,107.0,97.0,13.4,1505.4,326.6,-0.8,1.8,2470.076,13.35,0.021,291.8
2019-07-16T04:09:05,42.805,6.029,0.002,0.0,-0.062,101.0,108.0,97.0,13.4,1505.4,324.7,-0.7,1.8,2470.065,13.35,0.002,90.0
2019-07-16T04:12:06,42.805,6.029,-0.01,0.023,-0.034,101.0,108.0,98.0,13.4,1505.4,326.5,-0.7,1.9,2470.067,13.35,0.025,336.5
2019-07-16T04:15:07,42.805,6.029,-0.04,-0.003,-0.053,101.0,108.0,101.0,13.3,1505.4,327.0,-0.7,1.8,2470.048,13.35,0.04,265.7
2019-07-16T04:18:08,42.805,6.029,-0.02,0.002,-0.016,103.0,107.0,100.0,13.4,1505.4,325.4,-0.7,1.8,2470.051,13.35,0.02,275.7
2019-07-16T04:21:09,42.805,6.029,-0.007,0.018,-0.046,104.0,108.0,98.0,13.3,1505.4,328.0,-0.7,1.8,2470.104,13.35,0.019,338.8
2019-07-16T04:24:10,42.805,6.029,-0.004,0.004,-0.01,102.0,107.0,99.0,13.4,1505.4,326.3,-0.7,1.8,2470.088,13.35,0.005,315.0
2019-07-16T04:27:11,42.805,6.029,-0.005,0.016,-0.044,104.0,108.0,98.0,13.4,1505.4,326.7,-0.7,1.8,2470.086,13.35,0.016,342.6
2019-07-16T04:30:12,42.805,6.029,0.006,0.011,-0.021,104.0,109.0,99.0,13.3,1505.4,325.6,-0.8,1.8,2470.056,13.35,0.012,28.6
2019-07-16T04:33:13,42.805,6.029,-0.016,0.012,-0.016,126.0,107.0,99.0,13.3,1505.4,323.9,-0.7,1.8,2470.081,13.35,0.02,306.9
2019-07-16T04:36:14,42.805,6.029,-0.006,0.014,-0.017,102.0,109.0,98.0,13.4,1505.4,327.3,-0.7,1.8,2470.123,13.35,0.015,336.8
2019-07-16T04:39:15,42.805,6.029,-0.017,0.01,-0.027,102.0,108.0,97.0,13.4,1505.4,324.5,-0.7,1.9,2470.137,13.35,0.019,300.5
2019-07-16T04:42:16,42.805,6.029,-0.011,0.021,-0.022,103.0,107.0,99.0,13.3,1505.4,326.3,-0.7,1.8,2470.103,13.34,0.023,332.4
2019-07-16T04:45:17,42.805,6.029,-0.028,-0.006,-0.037,101.0,107.0,98.0,13.4,1505.4,323.6,-0.7,1.8,2470.099,13.34,0.028,257.9
2019-07-16T04:48:18,42.805,6.029,-0.029,0.023,-0.023,102.0,107.0,99.0,13.4,1505.4,326.0,-0.7,1.8,2470.103,13.34,0.037,308.4
2019-07-16T04:51:19,42.805,6.029,-0.001,0.022,-0.078,102.0,109.0,97.0,13.3,1505.4,326.3,-0.7,1.8,2470.133,13.34,0.022,357.4
2019-07-16T04:54:20,42.805,6.029,-0.016,0.017,-0.025,102.0,107.0,99.0,13.3,1505.4,326.5,-0.7,1.9,2470.107,13.34,0.023,316.7
2019-07-16T04:57:21,42.805,6.029,-0.003,0.028,-0.027,103.0,107.0,99.0,13.4,1505.4,328.2,-0.7,1.8,2470.107,13.34,0.028,353.9
2019-07-16T05:00:22,42.805,6.029,-0.022,0.024,-0.035,102.0,106.0,99.0,13.3,1505.4,326.6,-0.7,1.9,2470.118,13.34,0.032,317.5
2019-07-16T05:03:23,42.805,6.029,-0.014,0.022,-0.026,101.0,107.0,99.0,13.3,1505.4,324.8,-0.7,1.8,2470.104,13.34,0.026,327.5
2019-07-16T05:06:24,42.805,6.029,-0.035,-0.019,-0.043,102.0,106.0,99.0,13.4,1505.4,324.1,-0.7,1.8,2470.083,13.34,0.039,241.5
2019-07-16T05:09:25,42.805,6.029,0.032,-0.008,-0.045,102.0,108.0,98.0,13.4,1505.4,324.5,-0.7,1.9,2470.088,13.34,0.032,104.0
2019-07-16T05:12:26,42.805,6.029,-0.009,0.021,-0.046,102.0,108.0,99.0,13.4,1505.4,326.8,-0.7,1.8,2470.138,13.34,0.022,336.8
2019-07-16T05:15:27,42.805,6.029,-0.003,0.018,-0.027,103.0,108.0,99.0,13.3,1505.4,324.0,-0.7,1.8,2470.135,13.34,0.018,350.5
2019-07-16T05:18:28,42.805,6.029,-0.025,-0.002,-0.048,105.0,106.0,99.0,13.4,1505.4,326.8,-0.7,1.9,2470.096,13.34,0.025,265.4
2019-07-16T05:21:29,42.805,6.029,-0.009,0.017,-0.05,104.0,106.0,99.0,13.4,1505.4,326.6,-0.7,1.8,2470.103,13.34,0.019,332.1
